Theta_e
322 326 324 325 326 325 325 322 318 310 309 314 313 315 318 319 310 312 311 303 302 301 301 302 303 303 303 303 303 304 304 304 305 305 306 306 307 307
325 326 326 326 326 327 326 323 320 313 309 315 314 314 315 312 307 310 311 303 300 298 298 298 299 300 300 300 300 300 301 301 301 302 302 303 303 304
324 324 324 326 325 325 324 321 319 314 309 309 307 310 307 307 304 307 309 308 307 299 298 297 296 296 297 297 297 297 297 297 297 297 297 297 298 298
324 324 323 323 323 325 320 316 314 312 309 307 301 303 302 305 304 304 307 308 308 301 299 297 295 294 294 294 294 294 295 294 293 293 293 293 294 294
324 324 323 324 321 318 315 312 312 310 309 306 300 301 301 302 303 302 301 302 303 301 295 294 294 294 293 293 293 293 293 293 292 292 292 292 291 291
323 323 323 321 317 315 311 310 309 305 303 302 300 299 299 300 298 298 298 300 298 299 296 291 293 294 293 292 292 292 292 292 292 292 291 290 290 290
319 318 318 314 307 310 312 309 305 304 300 300 296 297 296 295 295 297 294 296 297 296 294 295 294 294 294 293 292 293 293 292 291 291 290 290 289 290
315 317 315 305 304 298 298 299 302 301 299 298 295 294 294 295 294 294 293 290 288 296 293 291 294 292 293 294 292 290 290 290 290 290 290 290 290 290
317 312 302 299 299 295 290 289 288 288 289 295 292 291 291 292 293 291 289 289 288 292 291 289 292 290 292 292 291 291 290 290 289 289 289 289 289 289
308 302 296 292 292 290 288 286 285 285 286 288 289 288 287 290 290 290 290 289 290 290 290 285 290 289 292 292 291 290 290 290 290 290 289 289 289 289
290 291 291 288 288 289 286 285 285 283 284 284 284 284 283 283 283 288 286 285 285 285 289 287 287 287 289 288 289 290 289 288 288 289 289 289 290 289
287 287 287 286 285 286 285 283 280 280 280 280 280 281 281 281 280 283 284 282 282 282 286 284 284 284 281 287 288 288 289 288 288 288 289 289 290 290
283 283 284 285 285 285 285 284 282 283 281 283 283 284 284 285 285 284 284 283 281 281 285 282 281 281 281 281 283 285 286 287 290 291 291 289 287 288
281 282 283 284 283 282 281 282 282 283 282 282 282 281 282 282 283 283 283 282 282 281 282 282 279 279 278 278 278 282 285 286 287 288 290 290 287 287
282 282 283 281 280 279 280 280 281 282 281 281 280 280 281 281 280 280 281 281 281 281 281 281 280 279 279 278 278 280 280 283 286 286 288 289 289 289
281 281 281 281 280 279 279 280 280 280 279 280 279 280 280 279 279 279 279 279 277 277 280 282 281 280 278 278 279 279 281 280 284 285 287 289 290 290
281 281 280 280 280 280 279 279 279 279 278 279 278 278 277 278 277 278 277 277 275 275 277 279 281 281 280 279 278 279 280 281 283 284 286 286 288 289
281 281 281 282 280 280 279 278 278 277 277 277 277 276 275 275 275 276 276 275 274 275 276 277 278 277 278 279 281 279 280 282 284 285 286 285 285 288
282 281 281 280 279 279 278 277 276 276 275 276 275 275 274 274 273 273 273 274 273 274 274 276 275 274 272 272 278 282 279 278 279 279 280 286 285 287
280 279 278 278 277 277 276 276 276 276 275 274 273 273 273 272 271 271 272 272 272 272 272 273 273 274 272 271 272 275 277 276 277 278 278 285 287 284
278 277 278 277 276 276 275 275 274 274 273 273 273 272 272 271 270 270 271 270 270 270 270 271 273 275 275 276 272 274 278 281 280 279 280 279 283 283
276 275 275 274 274 274 273 273 273 272 272 271 271 271 270 270 269 269 269 269 269 269 269 271 273 273 273 272 271 272 275 278 280 280 281 281 284 281
273 273 273 273 272 272 272 271 270 270 270 269 269 269 269 268 268 269 269 269 269 268 269 269 270 272 271 271 271 272 273 275 276 276 279 282 283 283
Wind_Speed
11 12 11 9 9 9 9 7 9 8 8 7 7 10 10 7 8 8 8 11 9 7 8 8 8 7 8 8 8 10 12 14 15 17 19 20 23 25
11 15 13 11 12 10 9 7 8 10 7 6 8 3 7 7 7 6 7 11 11 9 9 9 7 6 8 8 9 10 12 14 15 16 18 20 22 25
18 17 16 15 11 10 8 8 8 7 8 3 2 4 7 8 8 7 7 7 7 14 12 11 7 6 7 8 9 10 12 14 15 17 18 20 23 25
19 17 17 12 14 11 8 10 9 8 8 10 5 5 5 9 7 9 9 7 8 9 11 9 7 7 9 11 10 10 11 11 13 15 17 19 21 23
18 17 16 15 13 9 10 9 9 7 9 7 7 5 2 6 5 2 4 7 7 12 13 12 10 10 10 10 10 12 12 12 13 13 15 16 19 23
18 17 16 14 13 12 12 13 10 9 7 8 6 6 5 5 4 6 6 6 7 9 5 6 6 10 12 13 14 14 14 15 13 13 13 17 18 21
11 9 10 12 16 18 11 12 12 11 8 10 5 5 6 7 9 5 5 5 3 4 7 7 6 7 7 14 16 16 14 8 10 14 17 19 20 21
13 14 13 13 15 15 16 11 14 13 13 10 8 8 8 8 7 6 5 4 5 5 6 6 6 7 7 7 6 2 7 9 12 17 19 20 21 21
13 10 8 5 7 7 10 14 13 12 4 6 5 3 3 4 5 5 3 3 6 6 6 7 6 8 7 9 5 5 7 11 15 16 17 19 20 20
7 8 7 6 5 9 10 11 11 11 11 9 7 8 7 4 2 2 1 3 5 6 7 8 6 7 7 8 9 10 11 11 14 16 18 19 21 21
6 6 7 8 12 17 13 12 9 8 15 18 16 14 12 12 7 1 3 4 5 7 6 7 6 8 7 7 10 9 4 11 16 17 18 18 19 20
8 9 11 12 14 13 12 9 10 8 4 7 6 6 5 4 2 2 2 4 5 5 3 3 6 7 6 4 5 5 7 9 14 18 16 11 15 7
8 8 8 18 18 19 15 8 9 4 3 4 5 4 2 3 2 3 2 3 5 7 5 4 5 8 8 10 8 7 9 9 8 9 11 7 7 5
11 9 12 22 21 20 14 16 11 8 4 3 2 1 1 0 2 3 4 5 6 9 9 8 6 8 9 10 11 8 8 7 9 10 9 5 10 10
10 17 22 23 23 16 17 15 8 5 3 2 2 1 2 3 5 5 5 7 9 10 9 10 8 10 9 11 12 10 11 9 9 10 10 8 7 6
18 12 11 11 13 12 9 7 6 5 3 2 2 3 3 3 4 5 6 6 7 8 9 10 10 10 10 10 11 11 9 10 9 11 10 8 7 6
12 8 7 7 7 6 6 5 4 3 2 2 3 3 4 5 6 6 6 7 7 9 9 8 9 10 10 14 12 11 12 11 11 11 12 9 8 6
8 8 7 6 6 5 5 5 4 3 3 4 4 4 5 5 6 7 7 8 9 9 9 9 9 9 10 12 16 12 12 10 9 12 12 11 8 7
7 7 7 7 6 6 6 5 4 4 2 2 4 4 5 6 8 8 8 9 9 9 10 9 9 10 12 13 9 13 9 9 11 13 11 9 8 7
8 8 7 7 6 5 5 4 4 4 4 5 5 5 6 6 8 9 9 9 10 10 11 11 11 10 10 10 13 11 21 13 11 12 11 11 4 8
8 8 8 7 6 6 5 4 3 3 3 4 5 6 6 7 8 9 9 11 11 11 12 11 11 17 11 12 13 13 10 15 16 12 11 13 7 7
8 8 7 7 6 5 4 3 4 5 6 6 7 7 7 7 8 9 9 10 10 10 11 10 12 11 11 12 14 16 12 10 15 19 22 19 3 7
7 7 5 5 4 4 5 5 6 6 6 6 6 7 7 7 8 8 9 9 10 10 11 11 10 10 11 13 15 13 18 15 11 12 12 11 6 15
Wind_Direction
233 234 229 238 239 241 241 223 238 245 240 226 229 207 218 208 164 190 210 175 181 187 198 218 227 241 247 252 260 272 280 282 285 289 290 290 289 288
231 231 231 235 241 239 234 219 221 225 245 237 221 209 199 202 176 190 199 159 174 191 205 205 219 242 259 272 275 279 285 290 291 291 290 289 290 289
232 233 239 240 239 241 225 226 217 223 237 229 251 172 195 198 168 202 190 214 209 195 199 204 209 243 269 273 274 279 282 284 287 289 290 292 294 294
234 232 236 238 243 233 215 211 210 198 208 232 185 190 201 200 188 197 215 220 242 187 175 198 212 249 260 262 269 273 278 287 290 293 295 295 296 296
236 238 239 236 230 205 207 207 206 218 209 214 199 177 191 185 168 191 215 238 247 158 181 207 217 230 249 255 257 259 267 272 276 281 285 287 294 295
239 239 232 218 215 216 211 211 200 201 198 204 191 186 167 167 182 196 210 214 224 235 223 240 212 227 229 235 244 249 251 255 265 276 283 291 288 289
236 227 227 219 211 220 221 219 204 208 195 193 183 172 179 171 195 179 210 221 243 244 258 261 243 239 247 235 250 244 248 249 256 279 288 290 290 288
235 236 234 229 228 215 213 201 197 193 196 190 184 187 186 182 170 191 187 209 236 236 239 258 262 273 279 273 269 280 286 286 284 282 284 288 289 288
223 217 206 207 185 142 100 87 70 62 124 142 145 104 157 176 129 163 163 220 251 268 281 270 278 276 280 274 270 266 268 270 279 284 281 281 285 288
205 188 166 140 141 134 115 97 79 61 35 15 75 101 93 66 85 182 253 272 277 275 264 262 263 269 280 286 281 283 278 295 289 277 276 281 284 288
75 90 118 112 123 129 118 114 98 75 73 76 61 58 61 58 33 261 193 231 249 264 267 276 273 278 297 295 273 238 296 302 285 278 276 277 290 291
84 79 94 108 101 99 104 102 96 115 97 107 75 90 127 99 27 313 265 255 266 283 11 289 291 313 288 275 291 315 292 298 298 287 279 285 304 294
99 93 88 90 88 78 72 83 109 89 94 128 128 159 159 180 189 198 280 313 282 267 334 7 300 299 284 290 276 297 292 284 290 290 275 246 286 264
112 105 100 96 89 85 81 80 85 81 68 83 51 167 177 203 307 314 313 295 284 282 295 302 281 287 290 285 286 289 288 294 291 289 286 237 241 266
106 113 107 99 97 90 95 91 81 94 97 119 138 300 3 357 342 301 284 280 283 282 278 276 268 272 272 276 284 288 293 287 280 277 277 262 227 213
108 106 97 95 91 106 105 92 80 58 52 22 350 349 340 328 304 302 303 307 302 292 284 273 266 272 276 273 278 282 280 278 287 286 273 267 228 232
113 109 106 110 123 115 97 102 112 109 61 31 4 335 330 322 311 310 299 296 291 293 292 293 289 283 275 276 275 274 281 276 271 270 270 262 227 216
115 121 119 108 108 118 119 110 103 104 51 19 351 334 317 314 312 313 305 290 288 292 295 296 297 293 287 273 260 269 266 280 302 302 272 252 231 209
91 92 91 90 94 86 77 61 57 53 12 334 336 334 328 324 317 308 303 297 295 300 303 308 307 298 290 284 294 304 328 324 311 299 304 237 222 219
79 83 84 83 77 75 73 62 45 29 5 357 338 327 318 311 310 307 309 311 311 311 308 300 287 285 316 314 307 298 291 285 278 281 285 269 175 113
77 74 70 71 65 59 53 45 19 1 344 308 316 320 332 323 313 313 311 312 310 296 296 302 309 320 302 293 281 283 279 277 284 281 296 292 182 176
61 66 65 60 49 44 27 2 337 340 339 337 337 329 326 323 316 315 313 312 308 305 303 306 309 304 299 292 291 292 293 302 300 294 279 259 246 184
51 54 62 53 29 18 4 4 354 346 344 335 326 325 330 321 312 308 308 309 307 306 304 303 302 303 301 300 298 294 293 296 301 307 301 159 112 95